Theta_e
342 333 321 320 321 322 323 327 335 338 338 337 337 338 336 334 335 329 326 327 328 329 331 332 334 335 334 335 336 334 332 335 336 335 334 333 332 332 333 334 335 333 334
340 320 320 320 320 320 324 328 332 335 336 335 336 337 336 334 335 330 327 328 329 335 339 333 334 335 334 334 332 331 330 332 333 333 333 331 331 332 334 335 332 332 333
322 322 322 319 319 322 326 329 332 335 333 332 333 336 337 335 335 331 327 328 329 331 333 332 333 333 333 332 332 330 330 331 332 332 332 332 332 332 334 332 331 332 332
321 322 320 318 318 324 328 330 332 331 329 332 334 337 337 335 336 333 328 328 329 332 329 329 333 331 332 332 332 331 328 330 331 335 335 332 332 333 332 331 331 332 332
322 322 320 319 316 322 328 330 330 329 331 335 337 338 338 336 336 334 330 329 329 330 327 327 333 331 333 332 332 331 328 329 331 334 333 332 331 331 330 330 331 332 332
322 322 320 319 316 320 326 330 330 329 331 335 337 338 338 337 336 334 331 330 330 330 329 328 329 329 326 332 332 331 329 329 333 334 331 331 329 329 329 329 330 330 330
336 322 320 319 317 318 322 328 331 330 330 332 336 337 338 337 336 335 333 331 331 332 331 331 330 329 328 331 332 332 329 329 333 332 333 330 331 327 328 328 329 330 329
328 323 320 319 317 317 320 324 329 331 330 330 332 335 337 337 336 335 333 331 331 332 331 331 330 328 328 330 331 331 327 328 332 333 333 329 329 327 327 328 329 328 328
332 323 320 319 318 318 319 322 326 328 331 331 330 330 333 335 334 334 334 332 332 331 331 330 329 328 328 328 330 330 327 328 331 333 332 328 329 328 328 328 327 327 327
332 322 320 319 319 319 319 322 324 326 329 331 331 330 331 332 333 333 333 332 332 331 331 331 329 330 328 325 326 327 326 328 328 332 329 329 328 329 328 325 325 326 327
336 323 320 319 319 319 320 322 324 325 326 329 331 332 331 331 332 333 333 332 332 332 331 331 328 329 328 327 327 323 323 325 328 327 327 329 328 327 325 323 324 324 325
342 336 326 321 319 320 321 321 323 324 324 325 327 331 332 331 332 333 333 333 333 332 332 331 329 328 327 327 327 325 323 325 329 328 327 328 327 327 325 321 322 323 323
342 341 340 333 333 326 326 322 322 321 323 323 324 328 331 332 332 335 336 335 334 333 332 332 331 328 327 328 327 327 323 326 331 328 327 327 326 326 326 323 322 321 319
339 340 338 339 336 332 336 338 334 328 324 321 321 322 334 336 335 335 335 335 335 334 332 332 332 329 327 327 329 327 327 324 325 323 324 328 327 325 326 324 321 320 315
334 337 338 337 337 336 335 339 339 340 334 329 333 331 334 335 335 335 335 335 335 334 332 331 331 329 327 328 329 327 328 326 326 323 325 326 324 324 324 323 320 318 314
329 334 336 338 337 338 339 338 338 340 339 336 338 336 337 336 336 335 334 335 334 332 331 331 330 330 328 329 328 326 327 327 326 324 326 324 323 322 323 322 321 318 314
326 327 335 337 338 337 339 339 341 339 337 338 332 332 337 335 335 335 334 333 333 331 333 331 330 330 329 329 328 326 326 327 325 325 325 323 323 322 321 319 320 318 319
324 325 330 336 339 338 339 341 339 339 339 338 337 332 327 335 335 334 332 333 333 332 332 331 330 329 329 328 326 327 327 326 323 325 325 323 322 320 320 318 319 319 319
322 324 326 335 337 335 338 339 341 339 337 339 338 337 330 332 334 335 332 332 330 330 332 331 330 329 328 328 327 327 327 325 325 325 324 323 320 320 320 318 319 319 318
322 322 326 328 333 335 334 337 341 342 341 336 337 337 334 330 329 330 329 330 329 331 330 331 330 329 328 328 328 327 326 323 325 323 323 323 320 319 320 319 319 318 318
323 323 323 325 330 334 337 337 338 342 341 338 336 336 335 329 329 328 328 326 329 329 327 328 329 328 328 326 327 326 326 323 324 323 322 321 319 321 320 319 318 318 317
322 323 323 323 323 327 334 333 335 339 341 339 336 334 334 333 330 329 328 325 325 329 326 327 327 328 326 325 324 325 323 324 323 322 321 321 320 319 319 319 319 318 317
324 324 325 325 326 326 326 332 335 337 340 339 335 332 336 335 333 330 328 326 325 330 331 326 328 327 326 325 325 325 323 322 322 321 322 321 320 319 319 319 319 318 316
324 324 325 327 327 327 327 328 333 334 335 334 334 332 334 336 335 332 330 328 327 325 328 326 328 326 325 325 323 324 322 321 322 321 321 321 319 317 318 319 317 317 319
323 324 325 326 328 328 328 329 332 333 333 332 330 330 331 331 333 335 333 330 328 323 325 325 328 325 324 326 323 323 321 321 321 320 319 320 321 319 317 315 318 320 320
321 323 323 324 325 328 329 329 331 333 334 331 330 330 330 330 332 334 332 330 327 322 326 326 325 325 324 324 323 323 321 321 321 320 318 319 321 319 317 319 318 318 318
Wind_Speed
6 7 7 8 7 6 6 6 6 7 10 11 11 10 9 9 7 6 9 10 10 9 9 9 10 11 10 9 8 8 8 8 7 8 10 14 15 15 16 16 15 18 18
11 14 13 10 6 5 7 7 8 10 11 11 11 11 10 10 8 7 8 9 9 10 10 10 10 10 9 9 9 8 9 9 9 10 13 16 17 17 16 13 14 17 18
18 16 13 9 4 4 5 7 9 10 10 10 11 12 12 12 10 8 9 10 9 9 9 7 8 10 9 8 8 9 9 9 11 11 12 17 17 15 15 12 15 16 17
18 15 12 9 4 5 7 9 11 10 9 10 12 12 13 14 11 10 11 10 10 9 8 7 7 6 7 8 8 7 8 10 11 16 13 8 16 15 13 14 16 17 18
17 14 13 11 7 5 8 11 11 10 9 9 11 11 13 14 11 11 11 11 10 10 10 8 7 4 6 7 7 7 7 11 12 12 10 6 13 14 13 14 16 17 17
16 15 13 11 9 8 9 11 11 10 9 9 10 11 12 14 14 13 12 12 11 10 9 9 9 5 7 8 7 8 8 11 12 11 9 8 9 13 14 15 15 14 14
16 15 13 12 11 10 11 11 11 10 10 10 11 11 13 15 14 13 12 12 11 10 10 9 9 4 7 9 8 7 7 12 13 12 13 12 10 13 14 14 13 15 13
19 17 15 13 13 12 12 12 12 11 11 11 11 12 12 14 13 14 13 14 13 13 13 12 11 4 9 8 9 8 7 11 8 16 17 10 11 13 15 14 14 12 11
20 18 18 15 15 14 14 13 13 12 12 12 12 12 11 11 13 14 15 15 14 14 12 12 11 8 9 9 8 8 9 11 8 13 9 7 14 15 15 13 12 12 10
21 20 18 18 16 16 16 15 15 14 14 13 13 12 12 11 13 15 15 16 17 16 16 14 10 9 12 11 12 11 10 13 9 7 10 10 16 15 14 13 12 12 11
19 21 19 19 19 18 17 17 16 16 15 15 15 15 15 15 16 17 17 19 20 18 18 16 13 11 14 17 15 18 16 15 14 16 15 14 15 12 15 14 13 13 12
19 19 20 19 20 20 19 19 19 18 17 17 17 17 17 19 18 18 19 22 21 20 20 19 15 13 14 16 16 21 22 21 17 21 15 14 13 13 11 13 15 14 13
21 19 19 19 19 20 19 20 19 20 20 20 20 20 19 21 20 19 18 20 21 22 24 25 22 18 18 17 19 22 22 25 13 10 15 14 14 12 12 11 16 16 14
25 23 21 21 23 24 17 18 13 16 17 19 19 19 20 18 20 22 24 25 26 25 26 27 26 23 24 20 20 22 24 27 19 20 24 19 18 16 14 13 15 16 14
29 29 28 26 26 24 23 22 19 22 19 15 14 15 18 22 23 23 24 24 23 24 24 25 25 21 24 19 19 24 26 28 24 20 18 19 16 17 15 13 17 17 17
24 32 34 31 29 27 26 26 24 25 25 21 22 19 19 20 20 21 22 23 22 19 20 24 26 24 21 21 20 24 27 29 22 17 19 18 14 19 15 14 18 18 19
23 18 33 33 31 29 29 26 26 27 27 22 24 24 23 26 25 23 22 22 22 22 23 27 26 24 23 22 22 25 28 27 23 19 22 19 17 19 14 13 19 18 20
27 25 20 32 30 28 29 28 28 26 26 26 24 22 26 24 28 28 24 22 23 23 26 27 27 25 25 25 22 23 27 24 26 23 24 18 20 20 16 15 18 18 20
27 25 26 25 27 26 27 29 28 31 31 29 24 28 24 25 25 27 24 22 21 22 26 28 28 25 25 25 26 22 25 25 22 21 22 17 19 21 19 19 19 19 20
28 27 23 24 25 26 26 23 28 29 28 31 30 29 33 28 28 28 26 24 22 21 24 27 28 24 23 24 25 22 24 31 27 26 23 20 17 20 22 22 22 19 18
22 21 13 13 15 24 27 28 27 31 32 32 33 32 36 30 30 28 27 25 28 28 27 25 25 24 25 19 26 27 31 30 29 26 24 23 22 23 20 22 25 23 22
13 10 11 13 16 17 24 29 29 31 32 34 33 33 27 26 28 28 28 27 27 26 26 24 22 22 25 22 25 30 23 27 29 24 26 26 26 24 24 22 22 25 24
10 10 12 16 18 21 25 26 25 31 37 40 38 34 29 31 29 29 25 28 27 29 28 26 23 25 25 28 27 26 18 14 34 29 24 27 26 25 26 23 21 22 20
9 8 12 12 15 18 22 28 31 38 41 41 39 35 34 32 29 30 24 26 26 27 28 27 26 25 24 28 27 35 32 30 33 25 30 25 24 26 28 27 24 19 21
8 10 7 10 13 14 19 26 33 38 38 34 30 32 37 33 33 30 28 30 27 26 24 25 27 26 23 29 34 42 32 30 34 36 29 25 27 27 24 28 29 24 27
7 6 9 10 12 14 16 21 31 35 36 32 28 26 31 36 34 32 31 31 27 25 25 26 22 23 26 25 36 43 40 38 35 35 32 31 28 28 24 24 23 25 25
Wind_Direction
147 141 141 135 141 161 186 202 185 174 175 177 179 187 184 176 162 152 147 145 149 149 149 152 159 169 170 164 175 175 175 173 170 175 153 142 131 124 120 120 125 123 124
165 131 122 118 127 170 194 186 180 178 180 182 184 191 191 183 177 167 161 154 154 144 145 155 162 172 172 167 168 167 158 156 153 148 144 137 137 131 124 129 131 125 128
139 128 117 101 121 168 163 165 169 173 175 180 186 191 193 187 187 181 173 169 165 159 154 158 161 168 173 173 162 152 144 136 126 127 137 140 137 136 132 127 128 132 135
135 126 107 92 106 131 141 153 161 166 170 184 188 191 194 194 194 192 188 179 175 170 164 172 167 169 174 170 163 155 138 127 129 126 137 147 144 140 135 133 130 134 136
140 131 113 99 118 130 143 151 157 160 163 177 183 192 195 197 200 204 197 189 184 180 175 176 152 153 188 188 178 159 138 135 132 129 144 170 152 148 145 140 139 140 143
150 143 133 115 113 139 149 156 158 162 166 172 185 194 200 204 207 208 206 198 193 188 181 176 155 175 217 215 199 168 150 151 145 144 158 184 171 156 151 149 151 152 150
158 156 151 140 133 146 155 162 167 173 177 180 190 200 204 211 217 216 215 207 198 195 194 181 182 202 203 214 203 188 156 170 178 167 176 189 168 173 162 157 158 155 159
177 170 168 163 160 162 167 171 175 184 189 191 200 209 212 216 221 222 221 216 205 202 201 196 191 268 237 210 204 203 169 184 196 202 166 193 186 177 167 162 161 165 162
190 184 182 179 178 181 183 186 186 192 198 202 208 213 220 221 226 227 225 223 216 215 214 213 214 276 213 205 202 209 189 195 212 191 212 193 184 172 165 169 176 173 172
196 200 192 194 192 194 196 198 201 202 206 210 215 218 221 217 225 229 227 220 223 226 222 220 234 221 204 200 200 203 204 207 225 169 220 201 179 176 178 179 180 181 184
204 203 207 203 202 205 208 210 210 212 214 216 219 219 222 221 221 226 226 223 227 228 228 230 246 221 229 206 233 201 197 209 219 223 223 193 184 196 182 182 189 194 200
206 207 210 212 211 210 215 217 217 219 221 223 224 224 221 223 226 226 231 229 227 230 232 235 241 244 222 222 209 207 198 198 224 229 210 214 200 210 197 200 198 202 209
209 206 203 214 218 216 205 224 220 223 223 225 228 226 223 224 223 222 227 229 235 229 231 239 240 234 222 235 222 217 206 197 221 205 202 210 219 224 209 214 207 206 212
204 207 201 222 222 225 206 225 229 232 230 228 227 225 216 223 225 223 224 233 231 230 229 240 243 240 228 245 225 218 212 204 219 267 262 224 223 227 213 215 207 204 208
204 205 204 212 232 232 207 211 200 240 238 235 231 221 212 217 222 227 230 233 236 231 229 234 238 233 233 237 220 218 219 214 235 290 206 212 216 225 219 207 193 194 196
226 208 206 209 221 233 231 204 213 222 239 232 229 219 217 217 223 226 231 227 232 229 221 226 233 233 232 232 227 222 220 222 247 235 206 205 221 214 217 206 188 185 182
230 232 206 208 215 229 235 222 202 214 237 239 232 223 216 215 219 227 229 228 230 227 220 226 227 226 235 231 242 229 222 226 232 213 202 206 209 211 207 198 188 184 177
225 228 230 207 209 229 233 225 218 209 218 238 248 236 227 218 217 224 230 229 236 232 229 233 234 230 227 234 245 236 226 224 214 197 198 201 210 195 193 190 186 187 188
230 229 221 213 222 236 238 221 227 222 216 218 230 249 238 223 218 224 222 232 241 238 232 234 231 233 229 241 247 246 232 217 205 189 200 197 197 197 191 190 193 199 200
228 235 223 220 220 230 241 236 216 239 238 224 217 235 239 230 225 221 224 219 234 234 232 231 235 231 242 252 245 240 232 205 191 195 206 205 198 208 205 193 196 204 205
224 217 209 214 214 220 225 236 226 220 233 234 224 226 237 233 229 225 227 221 225 233 238 234 229 240 240 236 237 244 224 198 196 197 209 201 197 194 204 204 203 202 204
198 218 230 240 244 232 235 240 236 227 227 232 228 226 244 238 232 227 229 227 227 227 235 232 236 236 227 230 225 224 193 202 186 189 200 203 204 195 204 208 212 210 210
197 223 241 243 245 247 235 233 226 225 233 234 237 229 223 233 233 228 227 231 230 228 230 237 234 237 237 232 226 205 165 184 185 183 193 194 199 202 210 211 213 212 212
200 213 234 248 248 242 241 228 225 230 235 244 243 234 214 218 224 229 229 232 233 234 231 232 231 242 240 223 216 192 188 185 173 184 190 193 204 205 207 205 208 194 210
194 200 224 271 265 244 237 238 232 239 244 247 245 235 224 225 224 223 223 231 237 237 229 233 228 236 233 226 211 191 184 187 181 182 194 191 200 202 208 217 198 203 201
218 235 264 284 284 278 254 240 241 243 247 238 237 232 228 220 221 217 221 230 233 234 227 226 230 238 226 223 213 199 200 205 190 188 186 191 194 200 205 206 207 212 220